Location: Drayton Valley
(53.2170°N, 114.9830°W)
Time: 21:22:33
(UTC-07:00)

Tiangong 2 - Visible Passes

Search period start: 21 January 2018 00:00
Search period end: 31 January 2018 00:00
Orbit: 384 x 390 km, 42.8° (Epoch: 21 January)

Date Brightness Start Highest point End Pass type
(mag) Time Alt. Az. Time Alt. Az. Time Alt. Az.
21 Jan 4.0 06:34:19 10° S 06:35:18 11° SSE 06:36:18 10° SSE visible
22 Jan 3.8 07:11:11 10° SSW 07:12:48 13° S 07:14:25 10° SSE visible
23 Jan 3.7 06:14:09 13° S 06:14:21 13° S 06:15:50 10° SE visible
23 Jan 3.8 07:49:13 10° SSW 07:50:18 11° SSW 07:51:23 10° S visible
24 Jan 3.7 06:50:25 10° SSW 06:51:50 13° S 06:53:20 10° SSE visible
25 Jan 4.0 05:54:24 12° SSE 05:54:24 12° SSE 05:54:58 10° SSE visible
26 Jan 3.7 06:30:37 11° SSW 06:30:50 11° SSW 06:31:51 10° S visible
